Latest Weather Observations for Batchelor

IDD60901

Issued at 11:11 pm CST Tuesday 7 July 2015 (issued every 10 minutes, with the page automatically refreshed every 10 minutes)

About weather observations | Map of Darwin area stations | Latest observations for Darwin area | Other Formats
Station Details ID: 014272 Name: BATCHELOR AIRPORT Lat: -13.05 Lon: 131.03 Height: 104.0 m
Data from the previous 72 hours. | See also: Recent months at Batchelor
Date/Time
CST
Tmp

°C
App
Tmp
°C
Dew
Point
°C
Rel
Hum
%
Delta-T

°C
Wind Press
QNH
hPa
Press
MSL
hPa
Rain
since
9 am
mm
Dir
 
Spd
km/h
Gust
km/h
Spd
kts
Gust
kts
07/11:00pm 24.2 24.0 10.5 42 7.6 NNE 2 4 1 2 1012.9 1012.4 0.0
07/10:30pm 25.1 24.6 10.6 40 8.1 NNE 4 6 2 3 1012.9 1012.4 0.0
07/10:00pm 25.9 24.4 9.3 35 9.1 ESE 7 9 4 5 1012.6 1012.2 0.0
07/09:30pm 26.5 24.9 8.9 33 9.6 SE 7 9 4 5 1012.6 1012.2 0.0
07/09:00pm 25.2 24.0 9.5 37 8.6 ESE 6 7 3 4 1012.4 1012.0 0.0
07/08:30pm 26.3 24.4 9.2 34 9.4 ESE 9 13 5 7 1012.1 1011.7 0.0
07/08:00pm 25.7 24.4 9.1 35 9.1 ESE 6 7 3 4 1011.8 1011.4 0.0
07/07:30pm 26.3 25.4 9.2 34 9.4 ESE 4 6 2 3 1011.4 1010.9 0.0
07/07:00pm 26.8 25.3 9.2 33 9.7 ESE 7 9 4 5 1011.1 1010.6 0.0
07/06:30pm 28.8 26.8 8.5 28 11.2 ESE 9 11 5 6 1010.8 1010.3 0.0
07/06:00pm 30.4 27.5 8.2 25 12.3 ESE 13 17 7 9 1010.5 1010.0 0.0
07/05:30pm 31.3 28.2 8.9 25 12.6 ESE 15 20 8 11 1010.2 1009.7 0.0
07/05:00pm 31.6 28.4 8.6 24 12.9 ESE 15 24 8 13 1010.0 1009.5 0.0
07/04:30pm 31.3 27.7 8.3 24 12.8 ESE 17 28 9 15 1010.0 1009.5 0.0
07/04:00pm 31.8 28.8 9.3 25 12.7 ESE 15 28 8 15 1010.2 1009.7 0.0
07/03:30pm 32.3 30.2 9.8 25 12.9 ESE 11 24 6 13 1010.3 1009.8 0.0
07/03:00pm 31.8 29.1 10.5 27 12.3 ENE 15 24 8 13 1010.6 1010.1 0.0
07/02:30pm 31.9 28.9 10.6 27 12.3 E 17 28 9 15 1010.8 1010.3 0.0
07/02:00pm 31.3 28.7 10.6 28 11.9 E 15 30 8 16 1011.2 1010.7 0.0
07/01:30pm 31.3 28.2 11.7 30 11.5 E 19 32 10 17 1011.8 1011.4 0.0
07/01:00pm 30.6 27.4 12.0 32 10.9 ESE 20 33 11 18 1012.2 1011.8 0.0
07/12:30pm 30.0 26.8 12.0 33 10.6 E 20 32 11 17 1012.8 1012.3 0.0
07/12:00pm 29.5 26.5 12.4 35 10.1 ENE 20 33 11 18 1013.2 1012.7 0.0
07/11:30am 29.0 25.7 12.8 36 9.6 ENE 22 37 12 20 1013.6 1013.1 0.0
07/11:00am 28.5 25.9 13.2 39 9.1 ENE 19 30 10 16 1014.0 1013.5 0.0
07/10:30am 27.8 25.6 14.4 43 8.1 ENE 19 32 10 17 1014.4 1013.9 0.0
07/10:00am 26.4 25.1 14.8 49 7.0 ENE 15 24 8 13 1014.8 1014.3 0.0
07/09:30am 26.8 26.0 16.1 52 6.6 ENE 15 22 8 12 1014.6 1014.1 0.0
07/09:00am 25.1 24.4 16.3 58 5.4 ENE 15 26 8 14 1014.7 1014.2 0.0
07/08:30am 23.2 24.0 18.1 73 3.2 ENE 11 17 6 9 1014.3 1013.8 0.0
07/08:00am 22.3 24.2 18.5 79 2.4 ENE 6 13 3 7 1014.0 1013.5 0.0
07/07:30am 21.7 23.6 18.5 82 2.0 NE 6 7 3 4 1013.9 1013.4 0.0
07/07:00am 21.4 23.6 18.4 83 1.9 NNE 4 4 2 2 1013.7 1013.2 0.0
07/06:30am 21.7 24.3 18.3 81 2.1 NNE 2 4 1 2 1013.5 1013.0 0.0
07/06:00am 22.3 24.3 18.7 80 2.3 NNE 6 7 3 4 1013.3 1012.8 0.0
07/05:30am 22.3 24.4 18.9 81 2.2 N 6 7 3 4 1013.2 1012.7 0.0
07/05:00am 22.0 24.7 19.4 85 1.7 NW 4 6 2 3 1013.1 1012.6 0.0
07/04:30am 21.1 24.3 18.9 87 1.4 CALM 0 0 0 0 1012.8 1012.3 0.0
07/04:00am 20.8 23.7 18.2 85 1.6 CALM 0 0 0 0 1012.5 1012.1 0.0
07/03:30am 21.4 24.4 18.4 83 1.9 CALM 0 0 0 0 1012.3 1011.9 0.0
07/03:00am 21.2 24.2 18.4 84 1.8 CALM 0 0 0 0 1012.3 1011.9 0.0
07/02:30am 21.8 24.9 18.6 82 2.0 CALM 0 0 0 0 1012.3 1011.9 0.0
07/02:00am 21.9 24.7 17.9 78 2.5 CALM 0 0 0 0 1012.4 1012.0 0.0
07/01:30am 22.3 25.2 18.3 78 2.5 CALM 0 0 0 0 1012.6 1012.2 0.0
07/01:00am 22.5 25.2 17.8 75 2.9 CALM 0 0 0 0 1013.0 1012.5 0.0
07/12:30am 22.9 25.8 18.2 75 3.0 CALM 0 0 0 0 1013.1 1012.6 0.0
07/12:00am 23.3 26.3 18.4 74 3.1 CALM 0 2 0 1 1013.2 1012.7 0.0
 
Date/Time
CST
Tmp

°C
App
Tmp
°C
Dew
Point
°C
Rel
Hum
%
Delta-T

°C
Wind Press
QNH
hPa
Press
MSL
hPa
Rain
since
9 am
mm
Dir
 
Spd
km/h
Gust
km/h
Spd
kts
Gust
kts
06/11:30pm 24.1 26.2 18.1 69 3.8 WSW 4 4 2 2 1013.3 1012.8 0.0
06/11:00pm 24.3 26.0 17.1 64 4.5 WSW 4 4 2 2 1013.5 1013.0 0.0
06/10:30pm 24.5 26.3 16.5 61 4.9 WSW 2 2 1 1 1013.5 1013.0 0.0
06/10:00pm 24.9 26.6 16.1 58 5.4 WSW 2 4 1 2 1013.5 1013.0 0.0
06/09:30pm 24.8 26.1 16.2 58 5.3 NNW 4 4 2 2 1013.3 1012.8 0.0
06/09:00pm 25.3 26.9 15.9 56 5.8 N 2 2 1 1 1013.0 1012.5 0.0
06/08:30pm 25.7 26.6 16.0 55 6.0 NW 6 7 3 4 1012.6 1012.2 0.0
06/08:00pm 26.1 26.9 15.8 53 6.3 NE 6 15 3 8 1012.2 1011.8 0.0
06/07:30pm 25.5 27.2 15.2 53 6.2 CALM 0 0 0 0 1011.6 1011.1 0.0
06/07:00pm 26.4 27.3 15.1 49 6.9 ENE 4 4 2 2 1011.3 1010.8 0.0
06/06:30pm 28.1 28.9 14.7 44 8.1 ENE 4 6 2 3 1011.0 1010.5 0.0
06/06:00pm 29.4 29.5 14.0 39 9.3 ENE 6 7 3 4 1010.7 1010.2 0.0
06/05:30pm 30.1 29.7 14.2 38 9.7 E 9 15 5 8 1010.4 1009.9 0.0
06/05:00pm 31.4 30.3 13.2 33 10.9 E 11 19 6 10 1010.2 1009.7 0.0
06/04:30pm 32.0 30.2 13.2 31 11.3 ESE 15 26 8 14 1010.0 1009.5 0.0
06/04:00pm 32.5 30.7 13.2 31 11.6 E 15 22 8 12 1010.2 1009.7 0.0
06/03:30pm 31.9 30.1 13.2 32 11.3 ENE 15 24 8 13 1010.2 1009.7 0.0
06/03:00pm 31.6 29.1 13.4 33 11.0 E 19 26 10 14 1010.4 1009.9 0.0
06/02:30pm 31.5 28.9 13.7 33 10.8 E 20 30 11 16 1010.7 1010.2 0.0
06/02:00pm 31.6 29.2 13.8 34 10.8 ENE 19 32 10 17 1011.2 1010.7 0.0
06/01:30pm 31.3 29.3 14.0 35 10.5 ENE 17 32 9 17 1011.7 1011.3 0.0
06/01:00pm 30.5 28.1 13.7 35 10.1 ENE 19 35 10 19 1012.4 1012.0 0.0
06/12:30pm 30.2 27.8 14.3 38 9.7 E 20 33 11 18 1013.0 1012.5 0.0
06/12:00pm 29.5 26.9 14.9 41 8.9 E 22 32 12 17 1013.4 1012.9 0.0
06/11:30am 28.4 26.5 15.3 45 8.0 ENE 19 26 10 14 1013.9 1013.4 0.0
06/11:00am 28.3 26.9 15.6 46 7.8 ENE 17 28 9 15 1014.3 1013.8 0.0
06/10:30am 27.4 25.8 15.1 47 7.5 ENE 17 24 9 13 1014.5 1014.0 0.0
06/10:00am 26.3 25.1 16.0 53 6.3 ENE 17 22 9 12 1014.7 1014.2 0.0
06/09:30am 24.9 24.7 16.6 60 5.1 ENE 13 20 7 11 1014.8 1014.3 0.0
06/09:00am 22.5 22.7 15.8 66 4.0 E 9 15 5 8 1014.9 1014.4 0.0
06/08:30am 19.7 19.6 13.9 69 3.3 E 7 9 4 5 1014.8 1014.3 0.0
06/08:00am 18.8 18.5 13.4 71 3.1 ESE 7 11 4 6 1014.5 1014.0 0.0
06/07:30am 16.0 16.6 12.0 77 2.2 CALM 0 0 0 0 1014.4 1013.9 0.0
06/07:00am 16.1 16.5 11.3 73 2.6 CALM 0 0 0 0 1013.9 1013.4 0.0
06/06:30am 16.5 16.9 11.4 72 2.8 CALM 0 0 0 0 1013.5 1013.0 0.0
06/06:00am 16.6 16.9 10.9 69 3.1 CALM 0 0 0 0 1013.4 1012.9 0.0
06/05:30am 17.6 17.8 10.7 64 3.7 CALM 0 0 0 0 1013.4 1012.9 0.0
06/05:00am 18.7 17.8 10.5 59 4.4 E 6 7 3 4 1013.1 1012.6 0.0
06/04:30am 20.4 18.8 10.2 52 5.5 ENE 9 17 5 9 1013.1 1012.6 0.0
06/04:00am 20.7 19.6 10.8 53 5.4 E 7 9 4 5 1012.5 1012.1 0.0
06/03:30am 19.6 18.9 11.9 61 4.3 SE 7 9 4 5 1012.4 1012.0 0.0
06/03:00am 17.2 18.1 12.9 76 2.4 CALM 0 0 0 0 1012.6 1012.2 0.0
06/02:30am 17.1 17.9 12.6 75 2.5 CALM 0 0 0 0 1012.5 1012.1 0.0
06/02:00am 17.5 18.4 13.0 75 2.5 CALM 0 0 0 0 1012.6 1012.2 0.0
06/01:30am 17.7 18.6 12.8 73 2.7 CALM 0 0 0 0 1012.9 1012.4 0.0
06/01:00am 17.8 18.3 12.9 73 2.8 WNW 2 4 1 2 1012.9 1012.4 0.0
06/12:30am 18.3 18.5 13.2 72 2.9 WNW 4 4 2 2 1013.2 1012.7 0.0
06/12:00am 18.5 19.2 13.4 72 2.9 WNW 2 2 1 1 1013.5 1013.0 0.0
 
Date/Time
CST
Tmp

°C
App
Tmp
°C
Dew
Point
°C
Rel
Hum
%
Delta-T

°C
Wind Press
QNH
hPa
Press
MSL
hPa
Rain
since
9 am
mm
Dir
 
Spd
km/h
Gust
km/h
Spd
kts
Gust
kts
05/11:30pm 19.3 20.3 13.3 68 3.4 CALM 0 4 0 2 1013.8 1013.3 0.0
05/11:00pm 20.2 21.3 13.4 65 3.9 CALM 0 0 0 0 1013.9 1013.4 0.0
05/10:30pm 21.0 21.4 13.7 63 4.2 WNW 4 4 2 2 1014.1 1013.6 0.0
05/10:00pm 22.2 22.5 13.3 57 5.1 WNW 4 4 2 2 1014.0 1013.5 0.0
05/09:30pm 22.9 23.5 13.1 54 5.7 W 2 6 1 3 1013.9 1013.4 0.0
05/09:00pm 23.0 22.8 12.9 53 5.8 W 6 9 3 5 1013.7 1013.2 0.0
05/08:30pm 22.7 23.9 13.7 56 5.3 CALM 0 0 0 0 1013.4 1012.9 0.0
05/08:00pm 23.1 24.1 13.3 54 5.7 CALM 0 0 0 0 1013.2 1012.7 0.0
05/07:30pm 23.8 24.8 13.1 51 6.2 CALM 0 0 0 0 1012.9 1012.4 0.0
05/07:00pm 25.1 26.0 13.0 47 7.1 CALM 0 0 0 0 1012.6 1012.2 0.0
05/06:30pm 27.1 27.9 12.7 41 8.4 CALM 0 0 0 0 1012.4 1012.0 0.0
05/06:00pm 28.6 28.1 10.8 33 10.2 S 4 6 2 3 1012.2 1011.8 0.0
05/05:30pm 29.1 28.2 10.7 32 10.5 S 6 11 3 6 1011.9 1011.5 0.0
05/05:00pm 29.0 28.1 10.6 32 10.5 E 6 7 3 4 1011.8 1011.4 0.0
05/04:30pm 29.2 28.2 10.3 31 10.7 ENE 6 11 3 6 1011.8 1011.4 0.0
05/04:00pm 30.1 29.0 10.6 30 11.2 SE 7 9 4 5 1011.8 1011.4 0.0
05/03:30pm 29.4 28.6 11.0 32 10.6 NE 6 9 3 5 1012.1 1011.7 0.0
05/03:00pm 30.7 29.7 11.1 30 11.4 SE 7 19 4 10 1012.3 1011.9 0.0
05/02:30pm 29.4 27.9 10.5 31 10.8 NNE 9 17 5 9 1012.8 1012.3 0.0
05/02:00pm 29.6 28.1 10.7 31 10.8 SE 9 17 5 9 1013.1 1012.6 0.0
05/01:30pm 29.2 27.4 10.8 32 10.5 ESE 11 22 6 12 1013.6 1013.1 0.0
05/01:00pm 28.6 28.5 12.1 36 9.6 ESE 4 13 2 7 1014.1 1013.6 0.0
05/12:30pm 28.2 28.0 11.7 36 9.5 ESE 4 17 2 9 1014.5 1014.0 0.0
05/12:00pm 27.6 26.6 12.4 39 8.9 NE 9 15 5 8 1015.1 1014.6 0.0
05/11:30am 26.6 25.3 12.6 42 8.2 ENE 11 19 6 10 1015.5 1015.0 0.0
05/11:00am 26.1 23.5 9.5 35 9.2 E 13 19 7 10 1015.9 1015.4 0.0
05/10:30am 25.2 22.6 7.8 33 9.3 ESE 11 19 6 10 1016.0 1015.5 0.0
05/10:00am 24.8 21.6 7.0 32 9.3 SE 13 17 7 9 1016.1 1015.6 0.0
05/09:30am 23.1 19.3 6.0 33 8.7 SE 15 19 8 10 1016.0 1015.5 0.0
05/09:00am 21.9 19.0 4.9 33 8.4 SE 9 20 5 11 1016.1 1015.6 0.0
05/08:30am 18.8 17.1 6.0 43 6.3 SSE 4 7 2 4 1016.1 1015.6 0.0
05/08:00am 17.7 15.9 5.6 45 5.9 SSE 4 6 2 3 1015.7 1015.2 0.0
05/07:30am 16.8 14.6 5.4 47 5.5 SSE 6 6 3 3 1015.4 1014.9 0.0
05/07:00am 16.5 14.7 5.5 48 5.3 SSE 4 4 2 2 1015.0 1014.5 0.0
05/06:30am 17.8 15.6 5.4 44 6.0 SSE 6 7 3 4 1014.5 1014.0 0.0
05/06:00am 18.3 16.1 5.5 43 6.3 SSE 6 7 3 4 1014.2 1013.7 0.0
05/05:30am 19.3 17.0 5.0 39 7.0 SSE 6 13 3 7 1014.1 1013.6 0.0
05/05:00am 20.2 16.7 5.4 38 7.3 SSE 13 19 7 10 1013.9 1013.4 0.0
05/04:30am 18.4 16.4 8.7 53 5.1 SSE 9 13 5 7 1013.7 1013.2 0.0
05/04:00am 15.2 15.7 12.7 85 1.4 NW 2 7 1 4 1013.6 1013.1 0.0
05/03:30am 15.2 16.3 13.6 90 0.9 CALM 0 0 0 0 1013.8 1013.3 0.0
05/03:00am 15.4 16.5 13.6 89 1.0 CALM 0 0 0 0 1013.9 1013.4 0.0
05/02:30am 15.7 16.9 13.9 89 1.0 CALM 0 2 0 1 1014.0 1013.5 0.0
05/02:00am 15.9 17.1 13.7 87 1.2 CALM 0 0 0 0 1013.9 1013.4 0.0
05/01:30am 16.5 17.7 13.8 84 1.5 CALM 0 0 0 0 1014.1 1013.6 0.0
05/01:00am 17.1 18.3 13.8 81 1.9 CALM 0 0 0 0 1014.2 1013.7 0.0
05/12:30am 18.2 19.6 14.3 78 2.3 CALM 0 0 0 0 1014.2 1013.7 0.0
05/12:00am 19.4 20.7 15.1 76 2.5 NW 2 4 1 2 1014.1 1013.6 0.0
 
Date/Time
CST
Tmp

°C
App
Tmp
°C
Dew
Point
°C
Rel
Hum
%
Delta-T

°C
Wind Press
QNH
hPa
Press
MSL
hPa
Rain
since
9 am
mm
Dir
 
Spd
km/h
Gust
km/h
Spd
kts
Gust
kts
04/11:30pm 20.0 20.9 15.2 74 2.8 NNW 4 6 2 3 1014.1 1013.6 0.0

Latest Capital City Observations: Canberra | Sydney | Melbourne | Brisbane | Adelaide | Perth | Hobart | Darwin

Other Formats:

Comma delimited format used in spreadsheet applications
http://www.bom.gov.au/fwo/IDD60901/IDD60901.94125.axf

JavaScript Object Notation format (JSON) in row-major order
http://www.bom.gov.au/fwo/IDD60901/IDD60901.94125.json